Year,Month,Day,Hour,Minute,Value (Times are PST for windgust in km/hr)
2017,05,25,00,11,1.60
2017,05,25,00,28,1.60
2017,05,25,00,33,1.60
2017,05,25,00,34,1.60
2017,05,25,00,37,1.60
2017,05,25,00,41,1.60
2017,05,25,00,42,4.80
2017,05,25,00,43,4.80
2017,05,25,00,44,4.80
2017,05,25,00,45,4.80
2017,05,25,00,46,1.60
2017,05,25,00,47,3.20
2017,05,25,00,48,1.60
2017,05,25,00,53,1.60
2017,05,25,01,01,4.80
2017,05,25,01,02,1.60
2017,05,25,01,03,1.60
2017,05,25,01,06,1.60
2017,05,25,01,07,1.60
2017,05,25,01,08,1.60
2017,05,25,01,37,1.60
2017,05,25,01,38,1.60
2017,05,25,01,43,1.60
2017,05,25,02,32,1.60
2017,05,25,02,34,1.60
2017,05,25,02,36,1.60
2017,05,25,02,41,1.60
2017,05,25,02,57,1.60
2017,05,25,03,00,1.60
2017,05,25,03,04,1.60
2017,05,25,03,05,3.20
2017,05,25,03,06,4.80
2017,05,25,03,08,3.20
2017,05,25,03,09,3.20
2017,05,25,03,10,3.20
2017,05,25,03,11,1.60
2017,05,25,03,12,6.40
2017,05,25,03,13,3.20
2017,05,25,03,14,4.80
2017,05,25,03,15,6.40
2017,05,25,03,16,6.40
2017,05,25,03,17,3.20
2017,05,25,03,19,3.20
2017,05,25,03,21,1.60
2017,05,25,03,22,3.20
2017,05,25,03,23,6.40
2017,05,25,03,24,6.40
2017,05,25,03,25,8.10
2017,05,25,03,26,8.10
2017,05,25,03,27,8.10
2017,05,25,03,28,8.10
2017,05,25,03,29,9.60
2017,05,25,03,30,9.60
2017,05,25,03,31,9.60
2017,05,25,03,32,8.10
2017,05,25,03,33,8.10
2017,05,25,03,34,9.60
2017,05,25,03,35,6.40
2017,05,25,03,36,11.30
2017,05,25,03,37,9.60
2017,05,25,03,38,9.60
2017,05,25,03,39,9.60
2017,05,25,03,40,8.10
2017,05,25,03,41,9.60
2017,05,25,03,42,8.10
2017,05,25,03,43,8.10
2017,05,25,03,44,3.20
2017,05,25,03,45,3.20
2017,05,25,03,46,6.40
2017,05,25,03,47,3.20
2017,05,25,03,49,3.20
2017,05,25,03,50,3.20
2017,05,25,03,51,1.60
2017,05,25,03,55,3.20
2017,05,25,03,56,6.40
2017,05,25,03,57,8.10
2017,05,25,03,58,9.60
2017,05,25,03,59,11.30
2017,05,25,04,00,9.60
2017,05,25,04,01,9.60
2017,05,25,04,02,9.60
2017,05,25,04,03,8.10
2017,05,25,04,04,8.10
2017,05,25,04,05,6.40
2017,05,25,04,06,6.40
2017,05,25,04,08,6.40
2017,05,25,04,09,9.60
2017,05,25,04,10,6.40
2017,05,25,04,11,1.60
2017,05,25,04,12,9.60
2017,05,25,04,13,6.40
2017,05,25,04,22,1.60
2017,05,25,04,31,1.60
2017,05,25,04,32,3.20
2017,05,25,04,36,3.20
2017,05,25,04,37,3.20
2017,05,25,04,38,1.60
2017,05,25,04,39,8.10
2017,05,25,04,40,6.40
2017,05,25,04,41,6.40
2017,05,25,04,42,1.60
2017,05,25,04,43,3.20
2017,05,25,04,44,3.20
2017,05,25,04,46,1.60
2017,05,25,04,47,8.10
2017,05,25,04,48,3.20
2017,05,25,04,49,1.60
2017,05,25,04,51,3.20
2017,05,25,04,52,1.60
2017,05,25,04,56,1.60
2017,05,25,04,58,1.60
2017,05,25,04,59,3.20
2017,05,25,05,00,3.20
2017,05,25,05,01,3.20
2017,05,25,05,02,1.60
2017,05,25,05,03,1.60
2017,05,25,05,04,1.60
2017,05,25,05,06,6.40
2017,05,25,05,07,3.20
2017,05,25,05,08,8.10
2017,05,25,05,09,8.10
2017,05,25,05,10,8.10
2017,05,25,05,11,11.30
2017,05,25,05,12,8.10
2017,05,25,05,13,3.20
2017,05,25,05,14,8.10
2017,05,25,05,15,8.10
2017,05,25,05,16,11.30
2017,05,25,05,17,3.20
2017,05,25,05,18,3.20
2017,05,25,05,19,8.10
2017,05,25,05,20,8.10
2017,05,25,05,21,9.60
2017,05,25,05,22,8.10
2017,05,25,05,23,9.60
2017,05,25,05,24,9.60
2017,05,25,05,25,8.10
2017,05,25,05,26,8.10
2017,05,25,05,27,9.60
2017,05,25,05,28,3.20
2017,05,25,05,29,6.40
2017,05,25,05,30,6.40
2017,05,25,05,31,8.10
2017,05,25,05,32,9.60
2017,05,25,05,33,9.60
2017,05,25,05,34,8.10
2017,05,25,05,35,6.40
2017,05,25,05,36,8.10
2017,05,25,05,37,8.10
2017,05,25,05,38,8.10
2017,05,25,05,39,6.40
2017,05,25,05,40,6.40
2017,05,25,05,41,9.60
2017,05,25,05,42,3.20
2017,05,25,05,43,9.60
2017,05,25,05,44,9.60
2017,05,25,05,45,6.40
2017,05,25,05,46,3.20
2017,05,25,05,47,6.40
2017,05,25,05,48,6.40
2017,05,25,05,50,3.20
2017,05,25,05,51,8.10
2017,05,25,05,52,8.10
2017,05,25,05,53,8.10
2017,05,25,05,54,8.10
2017,05,25,05,55,3.20
2017,05,25,05,56,6.40
2017,05,25,05,57,1.60
2017,05,25,05,58,6.40
2017,05,25,05,59,3.20
2017,05,25,06,00,8.10
2017,05,25,06,01,6.40
2017,05,25,06,02,3.20
2017,05,25,06,03,6.40
2017,05,25,06,04,8.10
2017,05,25,06,05,6.40
2017,05,25,06,07,3.20
2017,05,25,06,08,3.20
2017,05,25,06,15,1.60
2017,05,25,06,16,6.40
2017,05,25,06,58,1.60
2017,05,25,06,59,1.60
2017,05,25,07,02,1.60
2017,05,25,07,04,1.60
2017,05,25,07,06,6.40
2017,05,25,07,07,6.40
2017,05,25,07,08,3.20
2017,05,25,07,10,8.10
2017,05,25,07,11,6.40
2017,05,25,07,12,3.20
2017,05,25,07,13,6.40
2017,05,25,07,14,6.40
2017,05,25,07,15,6.40
2017,05,25,07,16,3.20
2017,05,25,07,17,3.20
2017,05,25,07,18,3.20
2017,05,25,07,19,8.10
2017,05,25,07,20,6.40
2017,05,25,07,21,8.10
2017,05,25,07,22,3.20
2017,05,25,07,23,1.60
2017,05,25,07,24,1.60
2017,05,25,07,25,1.60
2017,05,25,07,26,3.20
2017,05,25,07,27,3.20
2017,05,25,07,28,1.60
2017,05,25,07,31,1.60
2017,05,25,07,33,1.60
2017,05,25,07,34,1.60
2017,05,25,07,35,1.60
2017,05,25,07,40,1.60
2017,05,25,07,43,1.60
2017,05,25,07,44,3.20
2017,05,25,07,45,1.60
2017,05,25,07,46,6.40
2017,05,25,07,47,8.10
2017,05,25,07,48,3.20
2017,05,25,07,49,1.60
2017,05,25,07,50,3.20
2017,05,25,07,51,3.20
2017,05,25,07,53,1.60
2017,05,25,07,54,1.60
2017,05,25,07,55,3.20
2017,05,25,07,56,1.60
2017,05,25,07,57,1.60
2017,05,25,07,58,1.60
2017,05,25,07,59,3.20
2017,05,25,08,00,3.20
2017,05,25,08,01,3.20
2017,05,25,08,03,1.60
2017,05,25,08,05,1.60
2017,05,25,08,07,6.40
2017,05,25,08,08,6.40
2017,05,25,08,09,3.20
2017,05,25,08,10,6.40
2017,05,25,08,11,3.20
2017,05,25,08,12,3.20
2017,05,25,08,13,1.60
2017,05,25,08,14,3.20
2017,05,25,08,15,6.40
2017,05,25,08,16,6.40
2017,05,25,08,17,1.60
2017,05,25,08,18,6.40
2017,05,25,08,19,3.20
2017,05,25,08,20,3.20
2017,05,25,08,21,8.10
2017,05,25,08,22,8.10
2017,05,25,08,23,3.20
2017,05,25,08,25,6.40
2017,05,25,08,26,9.60
2017,05,25,08,27,6.40
2017,05,25,08,28,8.10
2017,05,25,08,29,6.40
2017,05,25,08,30,6.40
2017,05,25,08,31,6.40
2017,05,25,08,32,8.10
2017,05,25,08,33,3.20
2017,05,25,08,34,1.60
2017,05,25,08,35,6.40
2017,05,25,08,36,3.20
2017,05,25,08,38,3.20
2017,05,25,08,39,3.20
2017,05,25,08,40,6.40
2017,05,25,08,41,1.60
2017,05,25,08,42,1.60
2017,05,25,08,43,1.60
2017,05,25,08,44,6.40
2017,05,25,08,47,3.20
2017,05,25,08,48,3.20
2017,05,25,08,49,6.40
2017,05,25,08,50,1.60
2017,05,25,08,51,6.40
2017,05,25,08,52,1.60
2017,05,25,08,53,3.20
2017,05,25,08,54,3.20
2017,05,25,08,55,3.20
2017,05,25,08,56,8.10
2017,05,25,08,57,8.10
2017,05,25,08,58,8.10
2017,05,25,08,59,9.60
2017,05,25,09,00,11.30
2017,05,25,09,01,11.30
2017,05,25,09,02,9.60
2017,05,25,09,03,9.60
2017,05,25,09,04,8.10
2017,05,25,09,05,6.40
2017,05,25,09,06,9.60
2017,05,25,09,07,9.60
2017,05,25,09,08,8.10
2017,05,25,09,09,8.10
2017,05,25,09,10,6.40
2017,05,25,09,11,11.30
2017,05,25,09,12,14.50
2017,05,25,09,13,12.90
2017,05,25,09,14,12.90
2017,05,25,09,15,12.90
2017,05,25,09,16,14.50
2017,05,25,09,17,11.30
2017,05,25,09,18,8.10
2017,05,25,09,19,8.10
2017,05,25,09,20,11.30
2017,05,25,09,21,9.60
2017,05,25,09,22,9.60
2017,05,25,09,23,14.50
2017,05,25,09,24,12.90
2017,05,25,09,25,12.90
2017,05,25,09,26,8.10
2017,05,25,09,27,1.60
2017,05,25,09,28,6.40
2017,05,25,09,29,8.10
2017,05,25,09,30,8.10
2017,05,25,09,31,9.60
2017,05,25,09,32,9.60
2017,05,25,09,33,9.60
2017,05,25,09,34,9.60
2017,05,25,09,35,9.60
2017,05,25,09,36,8.10
2017,05,25,09,37,8.10
2017,05,25,09,38,8.10
2017,05,25,09,39,9.60
2017,05,25,09,40,9.60
2017,05,25,09,41,8.10
2017,05,25,09,42,4.80
2017,05,25,09,43,8.10
2017,05,25,09,44,4.80
2017,05,25,09,45,9.60
2017,05,25,09,46,6.40
2017,05,25,09,47,8.10
2017,05,25,09,48,3.20
2017,05,25,09,49,8.10
2017,05,25,09,50,11.30
2017,05,25,09,51,9.60
2017,05,25,09,52,8.10
2017,05,25,09,53,11.30
2017,05,25,09,54,8.10
2017,05,25,09,55,9.60
2017,05,25,09,56,9.60
2017,05,25,09,57,6.40
2017,05,25,09,58,3.20
2017,05,25,09,59,9.60
2017,05,25,10,00,3.20
2017,05,25,10,01,12.90
2017,05,25,10,02,12.90
2017,05,25,10,03,9.60
2017,05,25,10,04,11.30
2017,05,25,10,05,8.10
2017,05,25,10,06,3.20
2017,05,25,10,07,4.80
2017,05,25,10,08,8.10
2017,05,25,10,09,8.10
2017,05,25,10,10,3.20
2017,05,25,10,11,12.90
2017,05,25,10,12,12.90
2017,05,25,10,13,12.90
2017,05,25,10,14,9.60
2017,05,25,10,15,11.30
2017,05,25,10,16,14.50
2017,05,25,10,17,12.90
2017,05,25,10,18,12.90
2017,05,25,10,19,9.60
2017,05,25,10,20,12.90
2017,05,25,10,21,9.60
2017,05,25,10,22,12.90
2017,05,25,10,23,11.30
2017,05,25,10,24,12.90
2017,05,25,10,25,11.30
2017,05,25,10,26,8.10
2017,05,25,10,27,6.40
2017,05,25,10,28,6.40
2017,05,25,10,29,4.80
2017,05,25,10,30,9.60
2017,05,25,10,31,8.10
2017,05,25,10,32,4.80
2017,05,25,10,33,4.80
2017,05,25,10,34,8.10
2017,05,25,10,35,3.20
2017,05,25,10,36,9.60
2017,05,25,10,37,11.30
2017,05,25,10,38,9.60
2017,05,25,10,39,11.30
2017,05,25,10,40,6.40
2017,05,25,10,41,12.90
2017,05,25,10,42,11.30
2017,05,25,10,43,12.90
2017,05,25,10,44,11.30
2017,05,25,10,45,11.30
2017,05,25,10,46,9.60
2017,05,25,10,47,9.60
2017,05,25,10,48,12.90
2017,05,25,10,49,12.90
2017,05,25,10,50,9.60
2017,05,25,10,51,12.90
2017,05,25,10,52,14.50
2017,05,25,10,53,17.70
2017,05,25,10,54,11.30
2017,05,25,10,55,9.60
2017,05,25,10,56,11.30
2017,05,25,10,57,12.90
2017,05,25,10,58,9.60
2017,05,25,10,59,11.30
2017,05,25,11,00,9.60
2017,05,25,11,01,14.50
2017,05,25,11,02,16.10
2017,05,25,11,03,11.30
2017,05,25,11,04,11.30
2017,05,25,11,05,9.60
2017,05,25,11,06,12.90
2017,05,25,11,07,16.10
2017,05,25,11,08,12.90
2017,05,25,11,09,17.70
2017,05,25,11,10,12.90
2017,05,25,11,11,8.10
2017,05,25,11,12,12.90
2017,05,25,11,13,16.10
2017,05,25,11,14,12.90
2017,05,25,11,15,12.90
2017,05,25,11,16,17.70
2017,05,25,11,17,17.70
2017,05,25,11,18,11.30
2017,05,25,11,19,14.50
2017,05,25,11,20,12.90
2017,05,25,11,21,14.50
2017,05,25,11,22,14.50
2017,05,25,11,23,16.10
2017,05,25,11,24,12.90
2017,05,25,11,25,14.50
2017,05,25,11,26,14.50
2017,05,25,11,27,12.90
2017,05,25,11,28,14.50
2017,05,25,11,29,12.90
2017,05,25,11,30,11.30
2017,05,25,11,31,16.10
2017,05,25,11,32,12.90
2017,05,25,11,33,8.10
2017,05,25,11,34,12.90
2017,05,25,11,35,11.30
2017,05,25,11,36,11.30
2017,05,25,11,37,12.90
2017,05,25,11,38,12.90
2017,05,25,11,39,11.30
2017,05,25,11,40,8.10
2017,05,25,11,41,9.60
2017,05,25,11,42,9.60
2017,05,25,11,43,12.90
2017,05,25,11,44,11.30
2017,05,25,11,45,8.10
2017,05,25,11,46,11.30
2017,05,25,11,47,9.60
2017,05,25,11,48,14.50
2017,05,25,11,49,11.30
2017,05,25,11,50,9.60
2017,05,25,11,51,11.30
2017,05,25,11,52,11.30
2017,05,25,11,53,11.30
2017,05,25,11,54,11.30
2017,05,25,11,55,8.10
2017,05,25,11,56,8.10
2017,05,25,11,57,9.60
2017,05,25,11,58,11.30
2017,05,25,11,59,9.60
2017,05,25,12,00,9.60
2017,05,25,12,01,12.90
2017,05,25,12,02,11.30
2017,05,25,12,03,9.60
2017,05,25,12,04,9.60
2017,05,25,12,05,12.90
2017,05,25,12,06,12.90
2017,05,25,12,07,8.10
2017,05,25,12,08,9.60
2017,05,25,12,09,8.10
2017,05,25,12,10,9.60
2017,05,25,12,11,12.90
2017,05,25,12,12,8.10
2017,05,25,12,13,11.30
2017,05,25,12,14,9.60
2017,05,25,12,15,16.10
2017,05,25,12,16,11.30
2017,05,25,12,17,8.10
2017,05,25,12,18,9.60
2017,05,25,12,19,9.60
2017,05,25,12,20,6.40
2017,05,25,12,21,8.10
2017,05,25,12,22,8.10
2017,05,25,12,23,12.90
2017,05,25,12,24,9.60
2017,05,25,12,25,8.10
2017,05,25,12,26,8.10
2017,05,25,12,27,8.10
2017,05,25,12,28,9.60
2017,05,25,12,29,4.80
2017,05,25,12,30,8.10
2017,05,25,12,31,11.30
2017,05,25,12,32,8.10
2017,05,25,12,33,8.10
2017,05,25,12,34,12.90
2017,05,25,12,35,11.30
2017,05,25,12,36,8.10
2017,05,25,12,37,11.30
2017,05,25,12,38,11.30
2017,05,25,12,39,8.10
2017,05,25,12,40,8.10
2017,05,25,12,41,9.60
2017,05,25,12,42,11.30
2017,05,25,12,43,11.30
2017,05,25,12,44,11.30
2017,05,25,12,45,9.60
2017,05,25,12,46,4.80
2017,05,25,12,47,11.30
2017,05,25,12,48,11.30
2017,05,25,12,49,6.40
2017,05,25,12,50,9.60
2017,05,25,12,51,11.30
2017,05,25,12,52,14.50
2017,05,25,12,53,12.90
2017,05,25,12,54,6.40
2017,05,25,12,55,12.90
2017,05,25,12,56,12.90
2017,05,25,12,57,12.90
2017,05,25,12,58,11.30
2017,05,25,12,59,9.60
2017,05,25,13,00,14.50
2017,05,25,13,01,12.90
2017,05,25,13,02,12.90
2017,05,25,13,03,11.30
2017,05,25,13,04,11.30
2017,05,25,13,05,8.10
2017,05,25,13,06,12.90
2017,05,25,13,07,11.30
2017,05,25,13,08,11.30
2017,05,25,13,09,11.30
2017,05,25,13,10,9.60
2017,05,25,13,11,9.60
2017,05,25,13,12,12.90
2017,05,25,13,13,11.30
2017,05,25,13,14,11.30
2017,05,25,13,15,12.90
2017,05,25,13,16,9.60
2017,05,25,13,17,9.60
2017,05,25,13,18,12.90
2017,05,25,13,19,9.60
2017,05,25,13,20,12.90
2017,05,25,13,21,16.10
2017,05,25,13,22,16.10
2017,05,25,13,23,14.50
2017,05,25,13,24,12.90
2017,05,25,13,25,12.90
2017,05,25,13,26,12.90
2017,05,25,13,27,12.90
2017,05,25,13,28,11.30
2017,05,25,13,29,9.60
2017,05,25,13,30,8.10
2017,05,25,13,31,9.60
2017,05,25,13,32,8.10
2017,05,25,13,33,12.90
2017,05,25,13,34,14.50
2017,05,25,13,35,14.50
2017,05,25,13,36,14.50
2017,05,25,13,37,12.90
2017,05,25,13,38,11.30
2017,05,25,13,39,12.90
2017,05,25,13,40,12.90
2017,05,25,13,41,8.10
2017,05,25,13,42,11.30
2017,05,25,13,43,8.10
2017,05,25,13,44,11.30
2017,05,25,13,45,9.60
2017,05,25,13,46,9.60
2017,05,25,13,47,11.30
2017,05,25,13,48,9.60
2017,05,25,13,49,9.60
2017,05,25,13,50,11.30
2017,05,25,13,51,11.30
2017,05,25,13,52,9.60
2017,05,25,13,53,12.90
2017,05,25,13,54,16.10
2017,05,25,13,55,14.50
2017,05,25,13,56,12.90
2017,05,25,13,57,11.30
2017,05,25,13,58,6.40
2017,05,25,13,59,9.60
2017,05,25,14,00,12.90
2017,05,25,14,01,11.30
2017,05,25,14,02,14.50
2017,05,25,14,03,17.70
2017,05,25,14,04,14.50
2017,05,25,14,05,17.70
2017,05,25,14,06,14.50
2017,05,25,14,07,16.10
2017,05,25,14,08,17.70
2017,05,25,14,09,17.70
2017,05,25,14,10,17.70
2017,05,25,14,11,16.10
2017,05,25,14,12,14.50
2017,05,25,14,13,14.50
2017,05,25,14,14,14.50
2017,05,25,14,15,14.50
2017,05,25,14,16,16.10
2017,05,25,14,17,16.10
2017,05,25,14,18,16.10
2017,05,25,14,19,16.10
2017,05,25,14,20,12.90
2017,05,25,14,21,17.70
2017,05,25,14,22,14.50
2017,05,25,14,23,14.50
2017,05,25,14,24,12.90
2017,05,25,14,25,14.50
2017,05,25,14,26,16.10
2017,05,25,14,27,16.10
2017,05,25,14,28,14.50
2017,05,25,14,29,12.90
2017,05,25,14,30,14.50
2017,05,25,14,31,14.50
2017,05,25,14,32,17.70
2017,05,25,14,33,16.10
2017,05,25,14,34,9.60
2017,05,25,14,35,12.90
2017,05,25,14,36,12.90
2017,05,25,14,37,8.10
2017,05,25,14,38,8.10
2017,05,25,14,39,9.60
2017,05,25,14,40,12.90
2017,05,25,14,41,8.10
2017,05,25,14,42,8.10
2017,05,25,14,43,11.30
2017,05,25,14,44,12.90
2017,05,25,14,45,9.60
2017,05,25,14,46,8.10
2017,05,25,14,47,11.30
2017,05,25,14,48,12.90
2017,05,25,14,49,14.50
2017,05,25,14,50,9.60
2017,05,25,14,51,14.50
2017,05,25,14,52,11.30
2017,05,25,14,53,9.60
2017,05,25,14,54,11.30
2017,05,25,14,55,11.30
2017,05,25,14,56,11.30
2017,05,25,14,57,9.60
2017,05,25,14,58,4.80
2017,05,25,14,59,9.60
2017,05,25,15,00,12.90
2017,05,25,15,01,9.60
2017,05,25,15,02,6.40
2017,05,25,15,03,11.30
2017,05,25,15,04,11.30
2017,05,25,15,05,9.60
2017,05,25,15,06,9.60
2017,05,25,15,07,11.30
2017,05,25,15,08,9.60
2017,05,25,15,09,6.40
2017,05,25,15,10,11.30
2017,05,25,15,11,12.90
2017,05,25,15,12,8.10
2017,05,25,15,13,9.60
2017,05,25,15,14,8.10
2017,05,25,15,15,11.30
2017,05,25,15,16,11.30
2017,05,25,15,17,9.60
2017,05,25,15,18,12.90
2017,05,25,15,19,12.90
2017,05,25,15,20,12.90
2017,05,25,15,21,9.60
2017,05,25,15,22,9.60
2017,05,25,15,23,12.90
2017,05,25,15,24,14.50
2017,05,25,15,25,9.60
2017,05,25,15,26,9.60
2017,05,25,15,27,11.30
2017,05,25,15,28,14.50
2017,05,25,15,29,14.50
2017,05,25,15,30,9.60
2017,05,25,15,31,11.30
2017,05,25,15,32,11.30
2017,05,25,15,33,11.30
2017,05,25,15,34,12.90
2017,05,25,15,35,11.30
2017,05,25,15,36,9.60
2017,05,25,15,37,9.60
2017,05,25,15,38,12.90
2017,05,25,15,39,12.90
2017,05,25,15,40,9.60
2017,05,25,15,41,6.40
2017,05,25,15,42,9.60
2017,05,25,15,43,6.40
2017,05,25,15,44,8.10
2017,05,25,15,45,8.10
2017,05,25,15,46,9.60
2017,05,25,15,47,9.60
2017,05,25,15,48,11.30
2017,05,25,15,49,11.30
2017,05,25,15,50,9.60
2017,05,25,15,51,9.60
2017,05,25,15,52,4.80
2017,05,25,15,53,8.10
2017,05,25,15,54,9.60
2017,05,25,15,55,6.40
2017,05,25,15,56,9.60
2017,05,25,15,57,6.40
2017,05,25,15,58,4.80
2017,05,25,15,59,8.10
2017,05,25,16,00,11.30
2017,05,25,16,01,8.10
2017,05,25,16,02,6.40
2017,05,25,16,03,8.10
2017,05,25,16,04,9.60
2017,05,25,16,05,11.30
2017,05,25,16,06,9.60
2017,05,25,16,07,11.30
2017,05,25,16,08,9.60
2017,05,25,16,09,11.30
2017,05,25,16,10,11.30
2017,05,25,16,11,11.30
2017,05,25,16,12,12.90
2017,05,25,16,13,11.30
2017,05,25,16,14,9.60
2017,05,25,16,15,11.30
2017,05,25,16,16,8.10
2017,05,25,16,17,8.10
2017,05,25,16,18,9.60
2017,05,25,16,19,11.30
2017,05,25,16,20,12.90
2017,05,25,16,21,9.60
2017,05,25,16,22,8.10
2017,05,25,16,23,9.60
2017,05,25,16,24,8.10
2017,05,25,16,25,6.40
2017,05,25,16,26,6.40
2017,05,25,16,27,1.60
2017,05,25,16,28,6.40
2017,05,25,16,29,8.10
2017,05,25,16,30,4.80
2017,05,25,16,31,6.40
2017,05,25,16,32,6.40
2017,05,25,16,33,3.20
2017,05,25,16,34,6.40
2017,05,25,16,35,6.40
2017,05,25,16,36,6.40
2017,05,25,16,37,9.60
2017,05,25,16,38,4.80
2017,05,25,16,39,6.40
2017,05,25,16,40,3.20
2017,05,25,16,41,9.60
2017,05,25,16,42,8.10
2017,05,25,16,43,6.40
2017,05,25,16,44,11.30
2017,05,25,16,45,9.60
2017,05,25,16,46,3.20
2017,05,25,16,47,4.80
2017,05,25,16,48,3.20
2017,05,25,16,49,6.40
2017,05,25,16,50,6.40
2017,05,25,16,51,4.80
2017,05,25,16,52,4.80
2017,05,25,16,53,8.10
2017,05,25,16,54,6.40
2017,05,25,16,55,8.10
2017,05,25,16,56,8.10
2017,05,25,16,57,3.20
2017,05,25,16,58,6.40
2017,05,25,16,59,6.40
2017,05,25,17,00,6.40
2017,05,25,17,01,6.40
2017,05,25,17,02,6.40
2017,05,25,17,03,8.10
2017,05,25,17,04,8.10
2017,05,25,17,05,6.40
2017,05,25,17,06,9.60
2017,05,25,17,07,8.10
2017,05,25,17,08,6.40
2017,05,25,17,10,6.40
2017,05,25,17,11,4.80
2017,05,25,17,12,6.40
2017,05,25,17,13,6.40
2017,05,25,17,14,9.60
2017,05,25,17,15,8.10
2017,05,25,17,16,4.80
2017,05,25,17,17,6.40
2017,05,25,17,18,8.10
2017,05,25,17,19,9.60
2017,05,25,17,20,6.40
2017,05,25,17,21,6.40
2017,05,25,17,22,6.40
2017,05,25,17,23,6.40
2017,05,25,17,24,8.10
2017,05,25,17,26,4.80
2017,05,25,17,27,4.80
2017,05,25,17,28,6.40
2017,05,25,17,29,8.10
2017,05,25,17,30,6.40
2017,05,25,17,31,6.40
2017,05,25,17,32,6.40
2017,05,25,17,33,8.10
2017,05,25,17,34,6.40
2017,05,25,17,35,6.40
2017,05,25,17,36,4.80
2017,05,25,17,37,8.10
2017,05,25,17,38,9.60
2017,05,25,17,39,9.60
2017,05,25,17,40,9.60
2017,05,25,17,41,8.10
2017,05,25,17,42,9.60
2017,05,25,17,43,8.10
2017,05,25,17,44,8.10
2017,05,25,17,45,8.10
2017,05,25,17,46,6.40
2017,05,25,17,47,4.80
2017,05,25,17,48,6.40
2017,05,25,17,49,9.60
2017,05,25,17,50,8.10
2017,05,25,17,51,8.10
2017,05,25,17,52,8.10
2017,05,25,17,53,8.10
2017,05,25,17,54,4.80
2017,05,25,17,55,6.40
2017,05,25,17,56,1.60
2017,05,25,17,57,1.60
2017,05,25,17,58,6.40
2017,05,25,17,59,9.60
2017,05,25,18,00,9.60
2017,05,25,18,01,9.60
2017,05,25,18,02,4.80
2017,05,25,18,03,1.60
2017,05,25,18,04,3.20
2017,05,25,18,05,6.40
2017,05,25,18,06,1.60
2017,05,25,18,07,6.40
2017,05,25,18,08,9.60
2017,05,25,18,09,8.10
2017,05,25,18,10,8.10
2017,05,25,18,11,8.10
2017,05,25,18,12,3.20
2017,05,25,18,13,11.30
2017,05,25,18,14,12.90
2017,05,25,18,15,9.60
2017,05,25,18,16,12.90
2017,05,25,18,17,11.30
2017,05,25,18,18,11.30
2017,05,25,18,19,11.30
2017,05,25,18,20,11.30
2017,05,25,18,21,11.30
2017,05,25,18,22,6.40
2017,05,25,18,23,6.40
2017,05,25,18,24,6.40
2017,05,25,18,25,4.80
2017,05,25,18,26,3.20
2017,05,25,18,27,11.30
2017,05,25,18,28,8.10
2017,05,25,18,29,6.40
2017,05,25,18,30,3.20
2017,05,25,18,31,6.40
2017,05,25,18,32,6.40
2017,05,25,18,33,4.80
2017,05,25,18,34,4.80
2017,05,25,18,35,4.80
2017,05,25,18,36,4.80
2017,05,25,18,37,9.60
2017,05,25,18,38,8.10
2017,05,25,18,39,6.40
2017,05,25,18,40,6.40
2017,05,25,18,41,8.10
2017,05,25,18,42,12.90
2017,05,25,18,43,9.60
2017,05,25,18,44,8.10
2017,05,25,18,45,6.40
2017,05,25,18,46,4.80
2017,05,25,18,47,3.20
2017,05,25,18,48,4.80
2017,05,25,18,49,3.20
2017,05,25,18,50,4.80
2017,05,25,18,51,1.60
2017,05,25,18,52,6.40
2017,05,25,18,53,4.80
2017,05,25,18,54,1.60
2017,05,25,18,55,1.60
2017,05,25,18,56,6.40
2017,05,25,18,57,3.20
2017,05,25,18,58,11.30
2017,05,25,18,59,12.90
2017,05,25,19,00,8.10
2017,05,25,19,01,9.60
2017,05,25,19,02,3.20
2017,05,25,19,03,4.80
2017,05,25,19,04,3.20
2017,05,25,19,05,8.10
2017,05,25,19,06,4.80
2017,05,25,19,07,6.40
2017,05,25,19,08,3.20
2017,05,25,19,09,3.20
2017,05,25,19,10,8.10
2017,05,25,19,11,8.10
2017,05,25,19,12,3.20
2017,05,25,19,13,4.80
2017,05,25,19,14,4.80
2017,05,25,19,15,1.60
2017,05,25,19,16,1.60
2017,05,25,19,17,6.40
2017,05,25,19,18,3.20
2017,05,25,19,19,1.60
2017,05,25,19,21,4.80
2017,05,25,19,22,3.20
2017,05,25,19,23,6.40
2017,05,25,19,24,6.40
2017,05,25,19,25,6.40
2017,05,25,19,26,3.20
2017,05,25,19,27,4.80
2017,05,25,19,28,3.20
2017,05,25,19,29,1.60
2017,05,25,19,30,4.80
2017,05,25,19,31,3.20
2017,05,25,19,33,4.80
2017,05,25,19,34,4.80
2017,05,25,19,35,3.20
2017,05,25,19,36,6.40
2017,05,25,19,37,8.10
2017,05,25,19,38,4.80
2017,05,25,19,39,6.40
2017,05,25,19,40,4.80
2017,05,25,19,41,8.10
2017,05,25,19,42,8.10
2017,05,25,19,43,4.80
2017,05,25,19,44,6.40
2017,05,25,19,45,6.40
2017,05,25,19,46,1.60
2017,05,25,19,47,4.80
2017,05,25,19,48,4.80
2017,05,25,19,50,4.80
2017,05,25,19,51,3.20
2017,05,25,19,52,3.20
2017,05,25,19,53,3.20
2017,05,25,19,54,4.80
2017,05,25,19,55,4.80
2017,05,25,19,56,6.40
2017,05,25,19,57,6.40
2017,05,25,19,58,6.40
2017,05,25,19,59,4.80
2017,05,25,20,00,1.60
2017,05,25,20,02,4.80
2017,05,25,20,03,1.60
2017,05,25,20,04,4.80
2017,05,25,20,05,4.80
2017,05,25,20,06,3.20
2017,05,25,20,08,1.60
2017,05,25,20,09,1.60
2017,05,25,20,10,1.60
2017,05,25,20,11,3.20
2017,05,25,20,12,4.80
2017,05,25,20,13,3.20
2017,05,25,20,14,1.60
2017,05,25,20,15,6.40
2017,05,25,20,16,4.80
2017,05,25,20,17,3.20
2017,05,25,20,18,1.60
2017,05,25,20,19,1.60
2017,05,25,20,21,3.20
2017,05,25,20,22,4.80
2017,05,25,20,23,4.80
2017,05,25,20,24,4.80
2017,05,25,20,25,6.40
2017,05,25,20,27,1.60
2017,05,25,20,29,1.60
2017,05,25,20,32,3.20
2017,05,25,20,33,1.60
2017,05,25,20,35,3.20
2017,05,25,20,36,4.80
2017,05,25,20,37,1.60
2017,05,25,20,38,1.60
2017,05,25,20,40,4.80
2017,05,25,20,41,6.40
2017,05,25,20,43,3.20
2017,05,25,20,47,3.20
2017,05,25,20,49,1.60
2017,05,25,20,50,1.60
2017,05,25,20,52,1.60
2017,05,25,20,53,8.10
2017,05,25,20,54,4.80
2017,05,25,20,55,3.20
2017,05,25,20,56,6.40
2017,05,25,20,57,4.80
2017,05,25,20,58,1.60
2017,05,25,20,59,8.10
2017,05,25,21,00,3.20
2017,05,25,21,01,3.20
2017,05,25,21,02,6.40
2017,05,25,21,03,3.20
2017,05,25,21,04,4.80
2017,05,25,21,05,4.80
2017,05,25,21,06,3.20
2017,05,25,21,07,3.20
2017,05,25,21,08,3.20
2017,05,25,21,09,1.60
2017,05,25,21,10,4.80
2017,05,25,21,11,6.40
2017,05,25,21,12,3.20
2017,05,25,21,13,6.40
2017,05,25,21,14,3.20
2017,05,25,21,15,6.40
2017,05,25,21,16,4.80
2017,05,25,21,17,3.20
2017,05,25,21,18,4.80
2017,05,25,21,19,3.20
2017,05,25,21,21,1.60
2017,05,25,21,22,8.10
2017,05,25,21,23,6.40
2017,05,25,21,24,8.10
2017,05,25,21,25,6.40
2017,05,25,21,26,4.80
2017,05,25,21,27,4.80
2017,05,25,21,28,4.80
2017,05,25,21,30,1.60
2017,05,25,21,31,1.60
2017,05,25,21,32,1.60
2017,05,25,21,33,1.60
2017,05,25,21,39,1.60
2017,05,25,21,45,1.60
2017,05,25,21,50,1.60
2017,05,25,21,52,1.60
2017,05,25,22,00,1.60
2017,05,25,22,03,1.60
2017,05,25,22,07,3.20
2017,05,25,22,08,1.60
2017,05,25,22,11,1.60
2017,05,25,22,20,1.60
2017,05,25,22,26,1.60
2017,05,25,23,15,1.60
2017,05,25,23,25,1.60
2017,05,25,23,27,1.60
2017,05,25,23,28,1.60
2017,05,25,23,32,1.60
2017,05,25,23,34,1.60
2017,05,25,23,37,1.60
